Hourly Data Report for July 18, 2021

CAPE RACE (AUT)
NEWFOUNDLAND
Current Station Operator: ECCC - MSC

46°39'36.000" N
53°04'35.000" W
26.50 m
8401000
71800
WRA

Download Data

Hourly Data (July 2021)
Hourly Data Report for July 18, 2021
TIME
LST
Temp Definition
°C
Dew Point Definition
°C
Rel Hum Definition
%
Precip. Amount Definition
mm

Wind Dir Definition
10's deg

Wind Spd Definition
km/h
Visibility Definition
km
Stn Press Definition
kPa
Hmdx Definition


Wind Chill Definition


Weather Definition


00:30 12.5 LegendMM LegendMM 0.0 25 21   101.21     LegendNANA
01:30 12.8 LegendMM LegendMM 0.0 27 20   101.18     LegendNANA
02:30 12.5 LegendMM LegendMM 0.0 27 22   101.18     LegendNANA
03:30 12.8 LegendMM LegendMM 0.0 26 23   101.20     LegendNANA
04:30 12.9 LegendMM LegendMM 0.0 28 22   101.21     LegendNANA
05:30 14.2 LegendMM LegendMM 0.0 29 17   101.23     LegendNANA
06:30 16.4 LegendMM LegendMM 0.0 32 15   101.25     LegendNANA
07:30 17.7 LegendMM LegendMM 0.0 30 11   101.28     LegendNANA
08:30 19.1 LegendMM LegendMM 0.0 28 13   101.32     LegendNANA
09:30 19.9 LegendMM LegendMM 0.0 24 13   101.34     LegendNANA
10:30 17.3 LegendMM LegendMM 0.0 20 11   101.34     LegendNANA
11:30 16.6 LegendMM LegendMM 0.0 21 14   101.31     LegendNANA
12:30 22.2 LegendMM LegendMM 0.0 22 20   101.29     LegendNANA
13:30 22.1 LegendMM LegendMM 0.0 25 36   101.27     LegendNANA
14:30 22.8 LegendMM LegendMM 0.0 25 31   101.25     LegendNANA
15:30 22.0 LegendMM LegendMM 0.0 26 37   101.24     LegendNANA
16:30 20.2 LegendMM LegendMM 0.0 25 32   101.25     LegendNANA
17:30 18.1 LegendMM LegendMM 0.0 24 29   101.26     LegendNANA
18:30 15.8 LegendMM LegendMM 0.0 26 28   101.29     LegendNANA
19:30 14.2 LegendMM LegendMM 0.0 26 19   101.33     LegendNANA
20:30 13.3 LegendMM LegendMM 0.0 24 20   101.37     LegendNANA
21:30 13.5 LegendMM LegendMM 0.0 24 22   101.36     LegendNANA
22:30 13.2 LegendMM LegendMM 0.0 26 24   101.34     LegendNANA
23:30 12.8 LegendMM LegendMM 0.0 26 28   101.32     LegendNANA

Notes on Data Quality.

Legend

  • E = Estimated
  • M = Missing
  • NA = Not Available*
  • [empty] = Indicates an unobserved value
Date modified: